Regional Weather Roundup
Issued by NWS Goodland, KS

Home | Current Version | Previous Version | Graphics & Text | Print | Product List | Glossary On
Versions: 1 2 3 4 5 6 7 8 9 10 11 12 13 14 15 16 17 18 19 20 21 22 23 24 25 26 27 28 29 30 31 32 33 34 35 36 37 38 39 40 41 42 43 44 45 46 47 48 49 50
097
ASUS43 KGLD 221359
RWRGLD

GOODLAND FORECAST AREA HOURLY WEATHER ROUNDUP
NATIONAL WEATHER SERVICE GOODLAND KS
800 AM MDT SUN OCT 22 2017

...OFFICIAL OBSERVATIONS...

CITY           SKY/WX    TMP DP  RH WIND       PRES   REMARKS
GOODLAND KS    CLEAR     39  21  48 SW13      30.21R
HILL CITY KS   SUNNY     37  28  70 W8        30.19R
IMPERIAL NEB   CLEAR     33  24  69 W9        30.18R
MCCOOK NEB     CLEAR     36  26  67 W10       30.18R
AKRON CO       CLOUDY    42  14  32 SW15G23   30.17R
BURLINGTON CO  CLEAR     38  20  48 SW12      30.22R
LIMON CO       CLOUDY    38  14  37 S9        30.23R
$$

...UNOFFICIAL OBSERVATIONS...

CITY           SKY/WX    TMP DP  RH WIND       PRES   REMARKS
LENORA KS        N/A     33  32  96 CALM        N/A
NORTON KS      SUNNY     36  25  64 W6        30.16R
SHARON SPRINGS   N/A     32  23  70 SW7         N/A
TRENTON NEB      N/A     33  32  96 CALM        N/A
KIT CARSON CO    N/A     26  19  74 CALM        N/A
YUMA CO        FAIR      32  23  69 SW9       30.18R
$$




USA.gov is the U.S. government's official web portal to all federal, state and local government web resources and services.